239ALFEROV (RS61S)

Last updated on Mon Nov 03 2025 00:03:22 GMT+0000 (Coordinated Universal Time)

1 64881U 25155F 25306.22937104 .00014995 00000+0 60270-3 0 9994 2 64881 97.4285 270.3381 0005552 259.1600 100.9013 15.25011435 46122
UTC large
Height (km)
Speed (km/s)
/
Latitude / Longitude
Inclination (degrees)
Orbital Period (minutes)
Azimuth
Elevation
Range (km)
Doppler Factor

Next 0 passes for location: London (51.5072 / 0.1276)

Sorry there are no passes over London.